Orbital Elements at Epoch 2459200.5 (2020-Dec-17.0) TDB
Reference: JPL 27 (heliocentric ecliptic J2000)
Element | Value | Uncertainty (1-sigma) | Units |
e | .1173858613644893 | 3.4138e-08 | |
a | 2.266751419410194 | 7.1105e-09 | au |
q | 2.00066685154355 | 7.658e-08 | au |
i | 7.251923373450436 | 3.6166e-06 | deg |
node | 93.27278266497004 | 3.0339e-05 | deg |
peri | 196.9768747631176 | 3.4435e-05 | deg |
M | 158.7179058493287 | 1.6195e-05 | deg |
tp | 2458650.924080342100 (2019-Jun-16.42408034) | 5.596e-05 | TDB |
period | 1246.534409700824 3.41 | 5.8653e-06 1.606e-08 | d yr |
n | .2888006919009979 | 1.3589e-09 | deg/d |
Q | 2.532835987276839 | 7.9452e-09 | au |
|
| | Orbit Determination Parameters
Additional Information
|